User: anonymous   Login
Location: Unspecified
(0.0000°N, 0.0000°E)
Time: 01:06:59
(UTC+01:00)
Language:

Cosmos 2219 - Orbit

View from above orbital plane
View from above orbital plane
View from above satellite
View from above satellite

Ground track
Ground track

The orbit data is extracted from the following two-line orbital elements,

1 22219U 92076A   15064.40344162  .00000122  00000-0  89689-4 0  9999
2 22219 071.0585 141.3869 0019962 226.7701 133.1755 14.13529083150241
Epoch (UTC): 05 March 2015 09:40:57
Eccentricity: 0.0019962
inclination: 71.0585°
perigee height: 833 km
apogee height: 862 km
right ascension of ascending node: 141.3869°
argument of perigee: 226.7701°
revolutions per day: 14.13529083
mean anomaly at epoch: 133.1755°
orbit number at epoch: 15024

The dashed part of the orbit path shows where the satellite is in the earth's shadow,  

DLR